| time (UTC) | temp C | wind direction | speed KPH | gust KPH | rain 1hr cm | rain 24hr cm | rain mn cm | humidity % | barometer mb |
| 20260505073009 | 18 | 174 | 3.2 | 22.5 | 0.00 | 0.00 | 0.00 | 61 | 1005.1 |
| 20260505071506 | 18 | 257 | 1.6 | 22.5 | 0.00 | 0.00 | 0.00 | 61 | 1004.9 |
| 20260505070006 | 18 | 234 | 3.2 | 16.1 | 0.00 | 0.00 | 0.00 | 62 | 1005.2 |
| 20260505064504 | 18 | 252 | 4.8 | 16.1 | 0.00 | 0.00 | 0.00 | 62 | 1005.2 |
| 20260505063003 | 17 | 188 | 0.0 | 14.5 | 0.00 | 0.00 | 0.00 | 63 | 1005.2 |
| 20260505061503 | 17 | 219 | 0.0 | 17.7 | 0.00 | 0.00 | 0.00 | 63 | 1005.2 |
| 20260505060002 | 17 | 259 | 3.2 | 12.9 | 0.00 | 0.00 | 0.00 | 63 | 1005.0 |
| 20260505054502 | 17 | 185 | 1.6 | 12.9 | 0.00 | 0.00 | 0.00 | 63 | 1004.8 |
| 20260505053113 | 18 | 195 | 3.2 | 20.9 | 0.00 | 0.00 | 0.00 | 63 | 1004.7 |
| 20260505051556 | 18 | 128 | 3.2 | 12.9 | 0.00 | 0.00 | 0.00 | 62 | 1004.8 |
| 20260505041609 | 19 | 200 | 0.0 | 9.7 | 0.00 | 0.00 | 0.00 | 61 | 1005.4 |
| 20260505040047 | 18 | 276 | 1.6 | 9.7 | 0.00 | 0.00 | 0.00 | 62 | 1005.5 |
| 20260505034547 | 18 | 256 | 0.0 | 9.7 | 0.00 | 0.00 | 0.00 | 62 | 1005.4 |
| 20260505033045 | 18 | 257 | 3.2 | 14.5 | 0.00 | 0.00 | 0.00 | 62 | 1005.4 |
| 20260505031546 | 19 | 250 | 1.6 | 11.3 | 0.00 | 0.00 | 0.00 | 62 | 1005.4 |
| 20260505030044 | 19 | 149 | 0.0 | 9.7 | 0.00 | 0.00 | 0.00 | 63 | 1005.2 |
| 20260505024547 | 19 | 169 | 0.0 | 9.7 | 0.00 | 0.00 | 0.00 | 62 | 1005.1 |
| 20260505023047 | 19 | 206 | 0.0 | 4.8 | 0.00 | 0.00 | 0.00 | 62 | 1005.0 |
| 20260505021545 | 19 | 219 | 0.0 | 0.0 | 0.00 | 0.00 | 0.00 | 62 | 1004.8 |
| 20260505020041 | 20 | 234 | 0.0 | 0.0 | 0.00 | 0.00 | 0.00 | 60 | 1004.6 |
| 20260505014544 | 20 | 160 | 0.0 | 0.0 | 0.00 | 0.00 | 0.00 | 60 | 1004.3 |
| 20260505013040 | 20 | 207 | 0.0 | 4.8 | 0.00 | 0.00 | 0.00 | 59 | 1004.3 |
| 20260505011540 | 20 | 227 | 0.0 | 14.5 | 0.00 | 0.00 | 0.00 | 59 | 1004.2 |
| 20260505010043 | 21 | 167 | 0.0 | 14.5 | 0.00 | 0.00 | 0.00 | 58 | 1004.2 |
| 20260505004538 | 21 | 167 | 0.0 | 9.7 | 0.00 | 0.00 | 0.00 | 57 | 1004.2 |
| 20260505003037 | 21 | 214 | 0.0 | 8.0 | 0.00 | 0.00 | 0.00 | 55 | 1004.2 |
| 20260505001547 | 22 | 196 | 1.6 | 17.7 | 0.00 | 0.00 | 0.00 | 54 | 1004.4 |
| 20260505000040 | 22 | 191 | 1.6 | 11.3 | 0.00 | 0.00 | 0.00 | 52 | 1004.5 |
| 20260504234534 | 23 | 186 | 1.6 | 19.3 | 0.00 | 0.00 | 0.00 | 50 | 1004.5 |
| 20260504233031 | 23 | 245 | 0.0 | 16.1 | 0.00 | 0.00 | 0.00 | 49 | 1004.8 |
| 20260504231539 | 23 | 220 | 6.4 | 20.9 | 0.00 | 0.00 | 0.00 | 47 | 1005.0 |
| 20260504230028 | 23 | 259 | 3.2 | 20.9 | 0.00 | 0.00 | 0.00 | 46 | 1005.0 |
| 20260504224528 | 24 | 228 | 3.2 | 25.7 | 0.00 | 0.00 | 0.00 | 46 | 1005.1 |
| 20260504223027 | 24 | 225 | 8.0 | 22.5 | 0.00 | 0.00 | 0.00 | 45 | 1005.2 |
| 20260504221525 | 25 | 197 | 6.4 | 27.4 | 0.00 | 0.00 | 0.00 | 45 | 1005.2 |
| 20260504220027 | 25 | 135 | 1.6 | 19.3 | 0.00 | 0.00 | 0.00 | 46 | 1005.3 |
| 20260504214524 | 25 | 256 | 1.6 | 12.9 | 0.00 | 0.00 | 0.00 | 47 | 1005.4 |
| 20260504213021 | 25 | 225 | 4.8 | 25.7 | 0.00 | 0.00 | 0.00 | 47 | 1005.5 |
| 20260504211517 | 25 | 236 | 0.0 | 3.2 | 0.00 | 0.00 | 0.00 | 49 | 1005.9 |
| 20260504210016 | 25 | 240 | 0.0 | 14.5 | 0.00 | 0.00 | 0.00 | 47 | 1006.0 |
| 20260504204516 | 25 | 219 | 0.0 | 12.9 | 0.00 | 0.00 | 0.00 | 47 | 1006.2 |
| 20260504203021 | 25 | 260 | 3.2 | 14.5 | 0.00 | 0.00 | 0.00 | 47 | 1006.3 |
| 20260504201509 | 24 | 198 | 4.8 | 16.1 | 0.00 | 0.00 | 0.00 | 50 | 1006.5 |
| 20260504200007 | 24 | 238 | 0.0 | 16.1 | 0.00 | 0.00 | 0.00 | 50 | 1006.8 |
| 20260504194508 | 24 | 262 | 6.4 | 19.3 | 0.00 | 0.00 | 0.00 | 49 | 1007.0 |
| 20260504193006 | 24 | 349 | 3.2 | 19.3 | 0.00 | 0.00 | 0.00 | 51 | 1007.3 |
| 20260504191601 | 23 | 226 | 4.8 | 12.9 | 0.00 | 0.00 | 0.00 | 53 | 1007.5 |
| 20260504190125 | 23 | 158 | 3.2 | 14.5 | 0.00 | 0.00 | 0.00 | 55 | 1007.8 |
| 20260504184557 | 21 | 247 | 4.8 | 19.3 | 0.00 | 0.00 | 0.00 | 58 | 1007.9 |
| 20260504183053 | 21 | 252 | 4.8 | 22.5 | 0.00 | 0.00 | 0.00 | 57 | 1008.0 |
| 20260504181557 | 21 | 278 | 4.8 | 16.1 | 0.00 | 0.00 | 0.00 | 58 | 1007.7 |
| 20260504180137 | 21 | 255 | 1.6 | 19.3 | 0.00 | 0.00 | 0.00 | 59 | 1007.5 |
| 20260504174550 | 21 | 252 | 4.8 | 20.9 | 0.00 | 0.00 | 0.00 | 59 | 1007.6 |
| 20260504173058 | 20 | 92 | 4.8 | 22.5 | 0.00 | 0.00 | 0.00 | 60 | 1007.6 |
| 20260504171546 | 20 | 234 | 0.0 | 24.1 | 0.00 | 0.00 | 0.00 | 60 | 1007.6 |
| 20260504140113 | 16 | 124 | 0.0 | 12.9 | 0.00 | 0.00 | 0.00 | 68 | 1008.4 |
| 20260504081507 | 11 | 241 | 0.0 | 9.7 | 0.00 | 0.00 | 0.00 | 65 | 1009.9 |